[[{"header":{"parameterUnit":"m.s-1","parameterCategory":1,"la1":30.2991,"la2":30.254,"lo1":-89.0895,"lo2":-89.0444,"dy":0.0017,"dx":0.0017,"nx":28,"ny":28,"refTime":"2026-02-25T03:00:00:Z","depth":0,"parameterNumber":2,"parameterNumberName":"U-component_of_WINDS"},"data":[0,0,0,0,0,0,0,0,0,0,0,0,0,0,0,0,0,0,0,0,0,0,0,0,0,0,0,0,0,0,0,0,0,0,0,0,0,0,0,0,0,0,0,0,0,0,0,0,0,0,0,0,0,0,0,0,0,0,1.1286,1.1286,0,1.1265,1.1265,1.1265,1.1214,1.1213,1.1212,1.1211,1.1191,1.1191,1.1191,0,0,0,0,0,0,0,0,0,0,0,0,0,1.1283,1.1283,1.1286,1.1286,1.1285,1.1265,1.1265,1.1265,1.1214,1.1213,1.1212,1.121,1.119,1.1191,1.1191,0,0,0,0,0,0,0,0,0,0,0,0,0,1.1275,1.1283,1.1286,1.1258,1.1255,1.1265,1.1265,1.1265,1.1214,1.1213,1.1211,1.121,1.119,1.1191,1.1192,1.1228,0,0,1.1194,1.1194,0,0,0,0,0,0,0,0,1.1276,1.1275,1.1262,1.126,1.1257,1.124,1.1256,1.1252,1.1215,1.123,1.1211,1.1209,1.1209,1.1208,1.1207,1.1227,1.1226,1.1194,1.1194,1.1194,1.1195,0,0,0,0,0,0,0,1.1276,1.1276,1.1278,1.1262,1.1259,1.1246,1.1244,1.1255,1.1228,1.1228,1.1225,1.1223,1.1207,1.1207,1.1206,1.1226,1.1194,1.1194,1.1195,1.1195,1.1273,1.1275,0,0,0,0,0,0,1.1281,1.1277,1.1278,1.1277,1.1262,1.1248,1.1245,1.1247,1.1228,1.1224,1.1224,1.1221,1.1206,1.1206,1.1205,1.1246,1.1194,1.1195,1.1195,1.1271,1.1273,1.1275,0,0,0,0,0,0,1.1281,1.1281,1.1279,1.1276,1.1275,1.1249,1.1253,1.1248,1.1248,1.1225,1.122,1.1229,1.1205,1.1205,1.1222,1.1245,1.1195,1.1196,1.1269,1.1272,1.1274,1.1328,0,0,0,0,0,0,1.1281,1.1282,1.1295,1.1277,1.1275,1.1297,1.1254,1.1249,1.1249,1.1244,1.1228,1.1224,1.1204,1.1222,1.1223,1.1245,1.1196,1.1267,1.1271,1.1274,1.1324,1.1332,1.1339,0,0,0,0,0,1.1281,1.1312,1.1296,1.1297,1.1291,1.1298,1.1297,1.1273,1.1251,1.1264,1.1249,1.1225,1.1242,1.1224,1.1225,1.1247,1.1266,1.127,1.1273,1.1321,1.1331,1.1339,0,0,0,0,0,0,1.1334,1.1309,1.1291,1.1317,1.131,1.1289,1.1305,1.1284,1.1283,1.1279,1.1249,1.1246,1.1267,1.1259,1.1239,1.1281,1.125,1.1254,1.1286,1.1295,1.1302,1.1303,1.1197,0,0,0,0,0,1.1349,1.1356,1.1333,1.1358,1.1355,1.1331,1.1333,1.1315,1.1307,1.1304,1.129,1.1283,1.1287,1.129,1.1293,1.1323,1.1318,1.1338,1.1346,1.1352,1.1356,1.1371,1.1379,1.1288,1.1288,1.1287,0,0,1.1379,1.1366,1.1372,1.1368,1.1361,1.1369,1.1329,1.134,1.1345,1.1305,1.1321,1.1311,1.1301,1.1325,1.1335,1.1319,1.138,1.1357,1.1362,1.1362,1.1375,1.1384,1.1392,1.129,1.129,1.1289,0,0,1.1438,1.1429,1.1448,1.1441,1.143,1.1414,1.1419,1.1401,1.1393,1.1408,1.1378,1.1385,1.1392,1.1386,1.1384,1.1441,1.1418,1.1442,1.1481,1.1495,1.1503,1.1509,1.1529,1.1536,1.1446,1.1447,1.1447,0,1.1477,1.1488,1.1461,1.1473,1.1472,1.1435,1.1455,1.1449,1.144,1.144,1.1422,1.143,1.1421,1.1443,1.1457,1.1456,1.1461,1.1444,1.1504,1.151,1.1515,1.1534,1.1541,1.145,1.1449,1.1449,1.1449,0,1.1537,1.1545,1.1561,1.1552,1.1553,1.1569,1.1544,1.1548,1.153,1.1515,1.1531,1.1519,1.1518,1.1522,1.1504,1.1541,1.1531,1.1509,1.1477,1.1527,1.1544,1.1551,1.1454,1.1453,1.1452,1.1451,0,0,1.1629,1.1604,1.1611,1.1606,1.1591,1.1597,1.1611,1.1609,1.1613,1.1608,1.1618,1.1625,1.1604,1.1602,1.1583,1.1596,1.1641,1.1572,1.1572,1.1585,1.1681,1.1698,1.1706,1.1626,1.1627,1.1628,1.1682,0,1.1684,1.1706,1.1682,1.1709,1.1716,1.1681,1.1693,1.1685,1.1672,1.1676,1.1661,1.1667,1.1639,1.1637,1.1648,1.1634,1.166,1.1629,1.1636,1.1636,1.1639,1.1715,1.1733,1.1784,1.1688,1.1689,1.169,0,1.1752,1.1749,1.1776,1.1759,1.1761,1.1772,1.1768,1.1773,1.1763,1.1753,1.175,1.1727,1.174,1.1709,1.1725,1.1705,1.1706,1.1699,1.1701,1.17,1.1666,1.1717,1.1799,1.1807,1.17,1.1699,1.1699,0,1.1815,1.1819,1.1835,1.1832,1.1813,1.1821,1.1814,1.1802,1.1803,1.18,1.18,1.1798,1.1798,1.1797,1.1775,1.1754,1.1794,1.1761,1.1786,1.1786,1.1796,1.1795,1.188,1.1797,1.1797,1.1797,1.1797,0,1.1879,1.1898,1.1864,1.1874,1.1893,1.1865,1.1885,1.1874,1.1864,1.1872,1.1842,1.185,1.182,1.1824,1.1807,1.1823,1.1823,1.1815,1.181,1.1817,1.1818,1.1818,1.1813,1.1799,1.1798,1.1798,1.1798,0,1.1954,1.1932,1.1948,1.1928,1.1923,1.1938,1.1921,1.193,1.1914,1.1924,1.1925,1.1901,1.1905,1.1883,1.1883,1.1871,1.1896,1.1885,1.1899,1.1895,1.1921,1.1919,1.2007,1.2018,1.1929,1.193,1.193,0,1.1996,1.2009,1.199,1.1993,1.1986,1.1991,1.1991,1.1964,1.1966,1.1956,1.1966,1.1967,1.1966,1.1974,1.1957,1.1957,1.1946,1.1977,1.1945,1.1952,1.1946,1.1945,1.1946,1.1983,1.1984,1.1985,1.1986,0,1.2073,1.2061,1.2062,1.206,1.2061,1.2058,1.2052,1.2056,1.2027,1.203,1.2033,1.2033,1.2033,1.2034,1.2031,1.2023,1.2,1.1996,1.2002,1.2009,1.2017,1.2013,1.1916,1.1994,1.1993,1.1993,1.1992,1.1992,1.2132,1.2142,1.213,1.2132,1.2125,1.2121,1.2128,1.2114,1.2116,1.2113,1.2097,1.2103,1.2093,1.2085,1.208,1.2084,1.2069,1.2078,1.208,1.2082,1.2086,1.2016,1.2084,1.2083,1.2083,1.2083,1.2083,0,1.2207,1.2197,1.22,1.2193,1.2195,1.2173,1.2166,1.2169,1.2174,1.2167,1.2167,1.217,1.2172,1.2155,1.2154,1.2161,1.215,1.2162,1.2161,1.2159,1.21,1.2095,1.217,1.217,1.217,1.217,1.217,1.217,1.2246,1.2261,1.2248,1.226,1.225,1.2256,1.2254,1.225,1.2243,1.2248,1.2249,1.2238,1.2226,1.2224,1.2225,1.222,1.2221,1.2236,1.2227,1.2172,1.2163,1.2155,1.215,1.2236,1.2236,1.2286,1.2286,1.2287]},{"header":{"parameterUnit":"m.s-1","parameterCategory":1,"la1":30.2991,"la2":30.254,"lo1":-89.0895,"lo2":-89.0444,"dy":0.0017,"dx":0.0017,"nx":28,"ny":28,"refTime":"2026-02-25T03:00:00:Z","depth":0,"parameterNumber":3,"parameterNumberName":"V-component_of_WINDS"},"data":[0,0,0,0,0,0,0,0,0,0,0,0,0,0,0,0,0,0,0,0,0,0,0,0,0,0,0,0,0,0,0,0,0,0,0,0,0,0,0,0,0,0,0,0,0,0,0,0,0,0,0,0,0,0,0,0,0,0,6.6767,6.6767,0,6.6776,6.6777,6.6777,6.672,6.6718,6.6717,6.6715,6.6723,6.6725,6.6726,0,0,0,0,0,0,0,0,0,0,0,0,0,6.6699,6.6701,6.6767,6.6767,6.6768,6.6776,6.6777,6.6777,6.672,6.6718,6.6716,6.6715,6.6722,6.6724,6.6726,0,0,0,0,0,0,0,0,0,0,0,0,0,6.6721,6.6702,6.6767,6.6741,6.6738,6.6776,6.6777,6.6777,6.6721,6.6718,6.6716,6.6714,6.6722,6.6724,6.6727,6.679,0,0,6.6735,6.6736,0,0,0,0,0,0,0,0,6.672,6.6723,6.6744,6.6743,6.674,6.6745,6.6755,6.6781,6.6721,6.6727,6.6715,6.6713,6.6732,6.6734,6.6741,6.6791,6.6791,6.6735,6.6736,6.6737,6.6738,0,0,0,0,0,0,0,6.6718,6.6723,6.6771,6.6745,6.6742,6.6728,6.6728,6.676,6.6743,6.6727,6.6723,6.6725,6.673,6.6738,6.674,6.6791,6.6735,6.6737,6.6739,6.674,6.6894,6.6897,0,0,0,0,0,0,6.6721,6.6722,6.6771,6.6771,6.6724,6.6731,6.6731,6.6746,6.6743,6.674,6.6727,6.6722,6.6735,6.6737,6.674,6.6815,6.6737,6.674,6.6741,6.6892,6.6895,6.6897,0,0,0,0,0,0,6.6719,6.6725,6.677,6.6745,6.675,6.6734,6.6751,6.6747,6.6755,6.6742,6.6739,6.6738,6.6733,6.6737,6.6778,6.6814,6.6741,6.6743,6.6888,6.6892,6.6896,6.6964,0,0,0,0,0,0,6.6718,6.6725,6.675,6.6746,6.6752,6.6809,6.6753,6.6749,6.676,6.6753,6.6752,6.675,6.6732,6.6775,6.6781,6.6816,6.6745,6.6885,6.689,6.6895,6.6958,6.6969,6.6979,0,0,0,0,0,6.6715,6.6768,6.6751,6.6758,6.6782,6.6811,6.6814,6.6793,6.6763,6.6787,6.6779,6.675,6.6809,6.678,6.6786,6.6823,6.6883,6.6889,6.6894,6.6954,6.6967,6.6979,0,0,0,0,0,0,6.6775,6.6767,6.6748,6.6802,6.6808,6.6801,6.6831,6.6808,6.6822,6.6816,6.6788,6.6788,6.6835,6.6833,6.68,6.6884,6.6841,6.6848,6.6884,6.6896,6.6907,6.6906,6.6747,0,0,0,0,0,6.6795,6.682,6.6811,6.6859,6.6863,6.6847,6.6859,6.6842,6.6847,6.6849,6.6844,6.6849,6.6869,6.6883,6.69,6.6958,6.6957,6.6986,6.6996,6.7005,6.7012,6.7042,6.7055,6.6917,6.6916,6.6916,0,0,6.6835,6.6834,6.6851,6.6871,6.6873,6.69,6.6849,6.6879,6.6898,6.6853,6.6892,6.6889,6.6893,6.6943,6.6965,6.6943,6.705,6.7012,6.7019,6.7021,6.7049,6.7062,6.7074,6.692,6.692,6.6919,0,0,6.6922,6.6924,6.6964,6.6968,6.6972,6.6961,6.6971,6.6969,6.6965,6.7004,6.6971,6.6993,6.7028,6.7032,6.7039,6.7128,6.7102,6.7135,6.7189,6.7219,6.7229,6.7239,6.727,6.7282,6.7141,6.7141,6.7142,0,6.6971,6.701,6.6987,6.7019,6.7029,6.699,6.703,6.7035,6.7045,6.7052,6.7028,6.7071,6.7071,6.7121,6.7143,6.715,6.716,6.7134,6.723,6.7239,6.7248,6.7277,6.7289,6.7145,6.7145,6.7145,6.7144,0,6.707,6.7097,6.7129,6.7141,6.7154,6.719,6.7172,6.7188,6.717,6.7162,6.7202,6.7201,6.7218,6.7228,6.7211,6.7277,6.7263,6.7235,6.719,6.7265,6.7293,6.7304,6.7151,6.715,6.7148,6.7147,0,0,6.7194,6.7193,6.7205,6.721,6.7213,6.7233,6.7267,6.7284,6.7299,6.7307,6.7335,6.7365,6.7339,6.7347,6.733,6.7356,6.7427,6.7325,6.7324,6.7344,6.7499,6.752,6.7533,6.741,6.7412,6.7413,6.7498,0,6.7279,6.7338,6.7318,6.7378,6.7402,6.7367,6.7396,6.7401,6.7394,6.7414,6.7405,6.7428,6.7392,6.7396,6.7421,6.7413,6.7458,6.7407,6.7434,6.7436,6.7434,6.7548,6.757,6.765,6.7509,6.7511,6.7512,0,6.7385,6.7399,6.7461,6.746,6.7469,6.7497,6.7511,6.753,6.7535,6.7528,6.7537,6.7514,6.7547,6.7504,6.7548,6.7514,6.7525,6.7523,6.7525,6.7527,6.7478,6.7552,6.7675,6.7687,6.7529,6.7527,6.7526,0,6.7469,6.7503,6.7545,6.755,6.755,6.757,6.757,6.7572,6.7584,6.7596,6.7603,6.7619,6.7628,6.764,6.7623,6.7593,6.767,6.7625,6.7665,6.7665,6.7682,6.7681,6.7809,6.769,6.769,6.7689,6.7689,0,6.7566,6.7605,6.7583,6.7608,6.7651,6.7628,6.7671,6.7668,6.767,6.7694,6.7664,6.7687,6.7662,6.7683,6.7669,6.7708,6.7712,6.7707,6.7703,6.771,6.771,6.7716,6.771,6.7692,6.7692,6.7691,6.7691,0,6.7667,6.7653,6.7696,6.7693,6.7693,6.7725,6.7721,6.7745,6.7736,6.7766,6.7772,6.7758,6.7781,6.7765,6.7787,6.7778,6.7829,6.7817,6.7828,6.7824,6.7865,6.7861,6.8,6.8017,6.7887,6.7889,6.789,0,6.7729,6.7759,6.7759,6.7773,6.7776,6.7799,6.7811,6.779,6.7803,6.7811,6.7833,6.7853,6.7868,6.7906,6.7898,6.7914,6.7902,6.795,6.7905,6.7911,6.7903,6.7901,6.7904,6.7959,6.7961,6.7962,6.7963,0,6.7841,6.7833,6.7852,6.7868,6.7883,6.7895,6.7904,6.7918,6.7896,6.7913,6.7936,6.7948,6.7971,6.7991,6.8005,6.8005,6.7981,6.7977,6.7987,6.7994,6.7999,6.7997,6.7852,6.7974,6.7973,6.7972,6.7971,6.7971,6.7924,6.7949,6.7953,6.7975,6.798,6.7989,6.8011,6.8005,6.8024,6.8042,6.8028,6.8056,6.8059,6.8076,6.8079,6.81,6.808,6.8095,6.8098,6.8102,6.8108,6.7996,6.8102,6.8102,6.8102,6.8101,6.8101,0,6.8034,6.8035,6.8056,6.807,6.8087,6.8063,6.8072,6.8088,6.8113,6.8119,6.8134,6.8161,6.8181,6.8174,6.8191,6.8209,6.8199,6.8215,6.8213,6.8213,6.8125,6.8114,6.8223,6.8223,6.8223,6.8223,6.8223,6.8223,6.8094,6.8134,6.8127,6.8169,6.8169,6.8197,6.8204,6.8213,6.8217,6.8248,6.8265,6.8261,6.8261,6.8279,6.8296,6.8293,6.8301,6.8321,6.8315,6.8232,6.822,6.8208,6.8198,6.8323,6.8323,6.8401,6.8402,6.8403]}]]